[[[{"header":{"parameterUnit":"kt","parameterCategory":2,"dx":1,"dy":1,"la1":30.253999710083008,"la2":30.299108505249023,"lo1":-89.0895004272461,"lo2":-89.04439544677734,"nx":28,"ny":28,"refTime":"2022-11-01T21:00:00:Z","depth":"0","parameterNumber":2,"parameterNumberName":"U-component_of_CURRENTS"},"data":[-0.1503,-0.1415,-0.1443,-0.1283,-0.1318,-0.1226,-0.1217,-0.1172,-0.1164,-0.0952,-0.0817,-0.0812,-0.0833,-0.0681,-0.0673,-0.0789,-0.0796,-0.0787,-0.0934,-0.1025,-0.1081,-0.1135,-0.1046,-0.0597,-0.0596,-0.0493,-0.0491,-0.0489,-0.1661,-0.1682,-0.169,-0.1783,-0.1726,-0.1899,-0.1959,-0.1923,-0.1853,-0.187,-0.1847,-0.1657,-0.158,-0.1681,-0.1615,-0.1567,-0.1659,-0.1517,-0.1379,-0.1425,-0.1804,-0.1732,-0.1421,-0.1421,-0.1421,-0.1422,-0.1422,-0.1422,-0.1991,-0.1962,-0.2113,-0.2163,-0.2236,-0.2264,-0.2252,-0.2381,-0.2407,-0.2398,-0.2595,-0.2469,-0.248,-0.2479,-0.2519,-0.2357,-0.252,-0.2187,-0.2138,-0.2177,-0.2113,-0.2615,-0.2478,-0.2481,-0.2483,-0.2485,-0.2487,0,-0.2292,-0.2384,-0.2478,-0.2592,-0.2662,-0.2739,-0.2845,-0.2876,-0.3107,-0.3118,-0.3101,-0.3085,-0.3107,-0.2916,-0.2935,-0.2887,-0.2732,-0.2834,-0.2657,-0.2176,-0.2162,-0.2122,-0.2642,-0.2542,-0.2545,-0.2548,-0.255,-0.2551,-0.2581,-0.264,-0.2907,-0.2951,-0.3043,-0.3154,-0.3182,-0.3415,-0.342,-0.3542,-0.3464,-0.3456,-0.334,-0.3271,-0.32,-0.3131,-0.3014,-0.291,-0.2862,-0.2691,-0.2591,-0.2599,-0.2592,-0.2589,-0.2584,-0.258,-0.2577,0,-0.2715,-0.2941,-0.3051,-0.3318,-0.338,-0.3403,-0.3554,-0.3556,-0.3675,-0.3613,-0.3601,-0.3589,-0.3495,-0.3435,-0.3337,-0.3285,-0.3091,-0.3178,-0.2975,-0.2914,-0.271,-0.2649,-0.253,-0.2509,-0.3133,-0.3133,-0.3133,0,-0.298,-0.3036,-0.3322,-0.3379,-0.3451,-0.3612,-0.3635,-0.3666,-0.3721,-0.3676,-0.3678,-0.3603,-0.3528,-0.3446,-0.338,-0.3271,-0.3269,-0.3201,-0.3162,-0.2963,-0.2945,-0.2716,-0.2637,-0.3186,-0.3186,-0.3186,-0.3186,0,-0.3074,-0.3253,-0.3357,-0.3409,-0.3596,-0.362,-0.3679,-0.3683,-0.3681,-0.3674,-0.3646,-0.3587,-0.352,-0.3461,-0.3342,-0.3334,-0.3261,-0.3219,-0.3166,-0.3164,-0.2913,-0.2889,-0.2727,-0.3187,-0.3187,-0.3187,-0.3187,0,-0.3204,-0.3334,-0.3425,-0.3607,-0.3623,-0.3643,-0.3676,-0.3687,-0.3654,-0.3632,-0.3572,-0.3503,-0.3453,-0.3411,-0.3317,-0.3322,-0.3272,-0.323,-0.3226,-0.3157,-0.3087,-0.2884,-0.2888,-0.2691,-0.3165,-0.3164,-0.3164,0,-0.3289,-0.3401,-0.3475,-0.3538,-0.359,-0.3608,-0.362,-0.36,-0.3563,-0.3541,-0.3463,-0.3413,-0.3352,-0.3328,-0.3308,-0.323,-0.3231,-0.3237,-0.3104,-0.3101,-0.3102,-0.316,-0.293,-0.2897,-0.3164,-0.3164,-0.3164,0,-0.3316,-0.3503,-0.3488,-0.3543,-0.3566,-0.3579,-0.3572,-0.3543,-0.3542,-0.3472,-0.3451,-0.3361,-0.3323,-0.3265,-0.3204,-0.3194,-0.3227,-0.3144,-0.3138,-0.3161,-0.3175,-0.3161,-0.3159,-0.3178,-0.3179,-0.3179,-0.3164,0,-0.3445,-0.3489,-0.3518,-0.353,-0.3539,-0.3555,-0.3529,-0.3512,-0.3472,-0.3422,-0.3366,-0.3279,-0.3188,-0.3172,-0.3117,-0.3112,-0.3085,-0.3031,-0.299,-0.3036,-0.302,-0.3021,-0.297,-0.2967,-0.2965,-0.2963,0,0,-0.3411,-0.3464,-0.3482,-0.3502,-0.3509,-0.3469,-0.3472,-0.344,-0.3368,-0.3342,-0.3316,-0.3169,-0.3098,-0.3038,-0.3054,-0.3002,-0.2978,-0.2995,-0.3006,-0.3011,-0.3016,-0.3005,-0.3008,-0.2959,-0.2958,-0.2957,-0.2957,0,-0.3434,-0.3462,-0.3485,-0.3484,-0.3471,-0.3442,-0.3448,-0.3401,-0.3369,-0.3313,-0.3235,-0.3186,-0.3064,-0.3009,-0.2959,-0.2975,-0.2914,-0.2948,-0.3023,-0.2988,-0.2997,-0.3004,-0.2995,-0.3,-0.2951,-0.2952,-0.2952,0,-0.3401,-0.3418,-0.3431,-0.3434,-0.3405,-0.3398,-0.3349,-0.3347,-0.3324,-0.3214,-0.3164,-0.3096,-0.2988,-0.2942,-0.2913,-0.2887,-0.2859,-0.2848,-0.2857,-0.2862,-0.2823,-0.2832,-0.2841,-0.2735,-0.2735,-0.2735,0,0,-0.3393,-0.3433,-0.3403,-0.3425,-0.3423,-0.3361,-0.3345,-0.3311,-0.3256,-0.3226,-0.3149,-0.3064,-0.2993,-0.2953,-0.2881,-0.2836,-0.2798,-0.2829,-0.2839,-0.2848,-0.2858,-0.2821,-0.283,-0.2735,-0.2735,-0.2735,0,0,-0.3379,-0.3389,-0.3356,-0.3394,-0.3361,-0.3308,-0.331,-0.3267,-0.3199,-0.3191,-0.3087,-0.3062,-0.3012,-0.2942,-0.2953,-0.2875,-0.2823,-0.2819,-0.2941,-0.2951,-0.2961,-0.2995,-0.2881,0,0,0,0,0,-0.3353,-0.3396,-0.3367,-0.3367,-0.3334,-0.3321,-0.3309,-0.3255,-0.3227,-0.3224,-0.3143,-0.3091,-0.2927,-0.2934,-0.2911,-0.2926,-0.2734,-0.2734,-0.2734,-0.2878,-0.2891,-0.2902,0,0,0,0,0,0,-0.3353,-0.3357,-0.3365,-0.3323,-0.3315,-0.3319,-0.3265,-0.3249,-0.3226,-0.3219,-0.3107,-0.3087,-0.3016,-0.294,-0.292,-0.2937,-0.2887,-0.2734,-0.2734,-0.2734,-0.2883,-0.2893,-0.2902,0,0,0,0,0,-0.3353,-0.3356,-0.333,-0.3319,-0.3312,-0.3251,-0.3264,-0.325,-0.3221,-0.3125,-0.3104,-0.3187,-0.3019,-0.2996,-0.2928,-0.2949,-0.29,-0.2893,-0.2734,-0.2734,-0.2734,-0.2888,0,0,0,0,0,0,-0.3353,-0.3314,-0.3326,-0.3319,-0.3321,-0.3248,-0.3239,-0.3252,-0.3125,-0.3108,-0.32,-0.3196,-0.302,-0.3002,-0.2986,-0.2958,-0.2911,-0.2904,-0.2899,-0.2734,-0.2734,-0.2734,0,0,0,0,0,0,-0.3313,-0.331,-0.3322,-0.3327,-0.332,-0.3245,-0.3239,-0.3169,-0.3123,-0.3204,-0.3199,-0.32,-0.3039,-0.3006,-0.2993,-0.2885,-0.2919,-0.2912,-0.2908,-0.2905,-0.2734,-0.2734,0,0,0,0,0,0,-0.3309,-0.3306,-0.3327,-0.3322,-0.3316,-0.3231,-0.3178,-0.3138,-0.3159,-0.3208,-0.3158,-0.3157,-0.3044,-0.303,-0.2999,-0.2897,-0.2888,-0.2919,-0.2914,-0.2911,-0.2909,0,0,0,0,0,0,0,-0.3306,-0.3355,-0.3376,-0.3318,-0.3312,-0.3262,-0.326,-0.3257,-0.3159,-0.3159,-0.3158,-0.3158,-0.2958,-0.295,-0.2943,-0.2906,0,0,-0.292,-0.2916,0,0,0,0,0,0,0,0,-0.3354,-0.3355,-0.3376,-0.3375,-0.3374,-0.3262,-0.326,-0.3257,-0.3159,-0.3159,-0.3158,-0.3158,-0.2956,-0.295,-0.2944,0,0,0,0,0,0,0,0,0,0,0,0,0,0,0,-0.3376,-0.3375,0,-0.3262,-0.326,-0.3258,-0.3159,-0.3159,-0.3158,-0.3158,-0.2954,-0.2949,-0.2944,0,0,0,0,0,0,0,0,0,0,0,0,0,0,0,0,0,0,0,0,0,0,0,0,0,0,0,0,0,0,0,0,0,0,0,0,0,0,0,0,0,0,0,0,0,0,0,0,0,0,0,0,0,0,0,0,0,0,0,0,0,0,0,0,0,0,0,0,0]}],[{"header":{"parameterUnit":"kt","parameterCategory":2,"dx":1,"dy":1,"la1":30.253999710083008,"la2":30.299108505249023,"lo1":-89.0895004272461,"lo2":-89.04439544677734,"nx":28,"ny":28,"refTime":"2022-11-01T21:00:00:Z","depth":"0","parameterNumber":3,"parameterNumberName":"V-component_of_CURRENTS"},"data":[-0.093,-0.0937,-0.0928,-0.088,-0.0857,-0.0784,-0.0745,-0.0614,-0.0442,-0.0123,0.0187,0.0334,0.0391,-0.0016,-0.007,-0.0095,-0.0075,-0.0163,-0.014,-0.0086,-0.0086,-0.0087,-0.0113,-0.0081,-0.0081,-0.01,-0.01,-0.01,-0.0915,-0.0914,-0.0917,-0.0893,-0.0857,-0.0825,-0.0763,-0.0675,-0.0613,-0.0454,-0.0413,-0.0216,-0.0309,-0.0254,-0.0226,-0.0215,-0.0221,-0.0207,-0.0191,-0.0165,-0.0179,-0.0211,-0.0198,-0.0198,-0.0198,-0.0198,-0.0198,-0.0198,-0.0875,-0.0898,-0.0888,-0.0869,-0.0839,-0.0808,-0.0762,-0.0689,-0.0638,-0.051,-0.0559,-0.0421,-0.0447,-0.0407,-0.0406,-0.0296,-0.0325,-0.024,-0.0238,-0.027,-0.028,-0.0355,-0.0337,-0.0337,-0.0338,-0.0338,-0.0338,0,-0.0824,-0.0819,-0.0823,-0.0815,-0.079,-0.0744,-0.0676,-0.0652,-0.0542,-0.051,-0.0483,-0.0483,-0.0449,-0.0421,-0.038,-0.0357,-0.0232,-0.0254,-0.0203,-0.0191,-0.0244,-0.0229,-0.0265,-0.0205,-0.0205,-0.0204,-0.0204,-0.0204,-0.0729,-0.0755,-0.073,-0.0725,-0.0708,-0.0666,-0.0632,-0.053,-0.0491,-0.0405,-0.0399,-0.0362,-0.0384,-0.0338,-0.0305,-0.0276,-0.026,-0.0237,-0.0259,-0.0236,-0.0242,-0.0279,-0.0261,-0.0198,-0.0199,-0.02,-0.02,0,-0.0672,-0.0649,-0.0664,-0.0624,-0.0602,-0.0601,-0.0506,-0.0478,-0.0417,-0.0383,-0.0367,-0.0313,-0.0304,-0.027,-0.0226,-0.0222,-0.0201,-0.0218,-0.0215,-0.0224,-0.0247,-0.0251,-0.0227,-0.0204,-0.0231,-0.0232,-0.0234,0,-0.057,-0.0577,-0.0531,-0.0563,-0.0549,-0.0509,-0.0482,-0.0455,-0.0393,-0.0371,-0.0331,-0.0318,-0.0272,-0.025,-0.0243,-0.0248,-0.0199,-0.0264,-0.0269,-0.0256,-0.0263,-0.0206,-0.0207,-0.0181,-0.0181,-0.0182,-0.0182,0,-0.0508,-0.0485,-0.0502,-0.0509,-0.0491,-0.0477,-0.0452,-0.0429,-0.0407,-0.0364,-0.0348,-0.0307,-0.0296,-0.0265,-0.0278,-0.0287,-0.0229,-0.0237,-0.0283,-0.0287,-0.0246,-0.0252,-0.0166,-0.0183,-0.0183,-0.0184,-0.0184,0,-0.0441,-0.0452,-0.0466,-0.0448,-0.0456,-0.0447,-0.0451,-0.043,-0.0403,-0.0395,-0.0371,-0.0364,-0.0339,-0.0367,-0.032,-0.035,-0.034,-0.0333,-0.033,-0.038,-0.0412,-0.0349,-0.0309,-0.0268,-0.0314,-0.0315,-0.0316,0,-0.0408,-0.0427,-0.0432,-0.0437,-0.0466,-0.0476,-0.0461,-0.0461,-0.0461,-0.0441,-0.0436,-0.0415,-0.0443,-0.0439,-0.0425,-0.0414,-0.039,-0.0435,-0.0358,-0.0355,-0.0436,-0.0406,-0.039,-0.0326,-0.0331,-0.033,-0.0328,0,-0.0416,-0.0437,-0.0448,-0.046,-0.0497,-0.0508,-0.0494,-0.0505,-0.0495,-0.0493,-0.047,-0.0462,-0.0466,-0.0453,-0.0462,-0.0446,-0.0415,-0.0456,-0.0454,-0.0439,-0.0343,-0.0417,-0.0414,-0.0421,-0.0419,-0.0418,-0.034,0,-0.0412,-0.044,-0.0445,-0.0497,-0.0503,-0.0517,-0.0544,-0.0541,-0.0554,-0.0559,-0.0532,-0.0526,-0.0502,-0.0509,-0.0516,-0.0481,-0.0478,-0.0485,-0.0494,-0.0466,-0.0436,-0.0427,-0.053,-0.0529,-0.0529,-0.0529,0,0,-0.0424,-0.0472,-0.0524,-0.0538,-0.0555,-0.0591,-0.0595,-0.0598,-0.0601,-0.0595,-0.0611,-0.0565,-0.0562,-0.0531,-0.0537,-0.0525,-0.0504,-0.053,-0.048,-0.0475,-0.047,-0.0441,-0.0432,-0.0529,-0.0528,-0.0528,-0.0528,0,-0.0454,-0.0513,-0.0531,-0.0552,-0.0585,-0.0605,-0.0607,-0.0633,-0.064,-0.0616,-0.0627,-0.0612,-0.0576,-0.0574,-0.0565,-0.0526,-0.052,-0.0525,-0.0511,-0.048,-0.0476,-0.0471,-0.0441,-0.0434,-0.0528,-0.0528,-0.0528,0,-0.0491,-0.0539,-0.056,-0.0614,-0.063,-0.0639,-0.0669,-0.0674,-0.0672,-0.0675,-0.0655,-0.0648,-0.0627,-0.0603,-0.0588,-0.0592,-0.0529,-0.0555,-0.0554,-0.0536,-0.0503,-0.0498,-0.0493,-0.0559,-0.0559,-0.0559,0,0,-0.0514,-0.0553,-0.0607,-0.0625,-0.0641,-0.0663,-0.0666,-0.0684,-0.0686,-0.0684,-0.0677,-0.0661,-0.0641,-0.063,-0.0606,-0.0569,-0.0545,-0.0561,-0.0559,-0.0558,-0.054,-0.0507,-0.0501,-0.0561,-0.0561,-0.0561,0,0,-0.0517,-0.06,-0.0626,-0.0661,-0.0677,-0.0702,-0.0696,-0.071,-0.0697,-0.0699,-0.07,-0.0696,-0.0666,-0.0649,-0.0668,-0.0623,-0.0625,-0.062,-0.0647,-0.0645,-0.0644,-0.0632,-0.069,0,0,0,0,0,-0.058,-0.0593,-0.0616,-0.0628,-0.0683,-0.0693,-0.0693,-0.0719,-0.0732,-0.0726,-0.0718,-0.0726,-0.0666,-0.0682,-0.0672,-0.067,-0.0578,-0.0575,-0.0572,-0.0597,-0.0594,-0.0593,0,0,0,0,0,0,-0.0585,-0.0602,-0.0615,-0.0647,-0.0659,-0.0693,-0.0725,-0.0731,-0.0734,-0.074,-0.0727,-0.0725,-0.0728,-0.0687,-0.0678,-0.0677,-0.0693,-0.0576,-0.0574,-0.0572,-0.0596,-0.0594,-0.0593,0,0,0,0,0,-0.0589,-0.0603,-0.0698,-0.0645,-0.0655,-0.0689,-0.0726,-0.0731,-0.0731,-0.0731,-0.0732,-0.0753,-0.0727,-0.072,-0.0681,-0.0681,-0.0699,-0.0696,-0.0575,-0.0573,-0.0571,-0.0595,0,0,0,0,0,0,-0.0592,-0.0588,-0.0699,-0.0701,-0.0662,-0.0686,-0.0697,-0.0732,-0.0722,-0.0724,-0.0757,-0.0761,-0.0725,-0.072,-0.0715,-0.0684,-0.0704,-0.0701,-0.0699,-0.0573,-0.0572,-0.057,0,0,0,0,0,0,-0.0581,-0.059,-0.07,-0.072,-0.0724,-0.0684,-0.0694,-0.0655,-0.072,-0.0747,-0.0751,-0.0759,-0.0726,-0.072,-0.0716,-0.0653,-0.0708,-0.0705,-0.0702,-0.0701,-0.0572,-0.0571,0,0,0,0,0,0,-0.0584,-0.0591,-0.072,-0.0722,-0.0726,-0.0742,-0.0646,-0.0695,-0.0762,-0.0745,-0.0767,-0.0769,-0.0725,-0.0722,-0.0717,-0.0656,-0.0654,-0.0708,-0.0705,-0.0704,-0.0703,0,0,0,0,0,0,0,-0.0586,-0.0545,-0.0695,-0.0724,-0.0728,-0.0716,-0.0716,-0.0716,-0.0763,-0.0765,-0.0766,-0.0768,-0.0726,-0.0722,-0.0719,-0.0658,0,0,-0.0708,-0.0706,0,0,0,0,0,0,0,0,-0.054,-0.0544,-0.0695,-0.0695,-0.0696,-0.0716,-0.0716,-0.0716,-0.0763,-0.0764,-0.0766,-0.0768,-0.0725,-0.0722,-0.0719,0,0,0,0,0,0,0,0,0,0,0,0,0,0,0,-0.0695,-0.0695,0,-0.0716,-0.0716,-0.0716,-0.0763,-0.0764,-0.0766,-0.0767,-0.0724,-0.0722,-0.0719,0,0,0,0,0,0,0,0,0,0,0,0,0,0,0,0,0,0,0,0,0,0,0,0,0,0,0,0,0,0,0,0,0,0,0,0,0,0,0,0,0,0,0,0,0,0,0,0,0,0,0,0,0,0,0,0,0,0,0,0,0,0,0,0,0,0,0,0,0]}]],[[{"header":{"parameterUnit":"kt","parameterCategory":2,"dx":1,"dy":1,"la1":30.253999710083008,"la2":30.299108505249023,"lo1":-89.0895004272461,"lo2":-89.04439544677734,"nx":28,"ny":28,"refTime":"2022-11-01T21:00:00:Z","depth":"2","parameterNumber":2,"parameterNumberName":"U-component_of_CURRENTS"},"data":[-0.1182,-0.1102,-0.1121,-0.0998,-0.1022,-0.0936,-0.0919,-0.0879,-0.0818,-0.0695,-0.0576,-0.0572,-0.0614,-0.034,-0.0325,-0.0223,-0.0509,-0.0215,-0.0837,-0.091,-0.0964,-0.1161,-0.1016,0,0,0,0,0,-0.1321,-0.1335,-0.1335,-0.137,-0.1327,-0.1448,-0.1464,-0.1417,-0.1337,-0.1287,-0.1205,-0.0946,-0.0763,-0.0831,-0.0721,-0.0721,-0.0791,-0.0684,-0.0707,-0.0767,-0.0823,-0.0691,-0.0223,-0.0222,-0.0221,-0.022,0,0,-0.1581,-0.1555,-0.1646,-0.1662,-0.1709,-0.1723,-0.1688,-0.1757,-0.1739,-0.1681,-0.1746,-0.1583,-0.1557,-0.1349,-0.1276,-0.1287,-0.1502,-0.1369,-0.1394,-0.1427,-0.132,-0.1273,-0.1021,-0.1025,-0.1028,-0.1031,-0.1034,0,-0.1787,-0.1853,-0.1914,-0.197,-0.2012,-0.2055,-0.2119,-0.2099,-0.2292,-0.2242,-0.2185,-0.2122,-0.2056,-0.1847,-0.1777,-0.1731,-0.1861,-0.1705,-0.2221,-0.1676,-0.1639,-0.1593,-0.1619,-0.1471,-0.1478,-0.1483,-0.1486,-0.1489,-0.1973,-0.2029,-0.2199,-0.2221,-0.2299,-0.2391,-0.243,-0.262,-0.2615,-0.2671,-0.2564,-0.2537,-0.2412,-0.2295,-0.224,-0.2191,-0.2291,-0.1855,-0.1861,-0.2328,-0.2279,-0.2282,-0.2284,-0.1559,-0.155,-0.1543,-0.1537,0,-0.2057,-0.2226,-0.2307,-0.2518,-0.2566,-0.2606,-0.2717,-0.2743,-0.2878,-0.2799,-0.2784,-0.2796,-0.2731,-0.2668,-0.2615,-0.2533,-0.2448,-0.2373,-0.2096,-0.2009,-0.2316,-0.2311,-0.2286,-0.228,-0.2275,-0.2271,-0.2267,0,-0.2224,-0.2283,-0.2505,-0.2546,-0.2619,-0.2793,-0.2847,-0.293,-0.2991,-0.2938,-0.3001,-0.2899,-0.2889,-0.2767,-0.274,-0.2573,-0.2646,-0.2489,-0.2435,-0.2195,-0.2158,-0.2555,-0.2545,-0.2637,-0.2637,-0.2636,-0.2636,0,-0.2284,-0.2445,-0.2546,-0.2588,-0.2766,-0.2813,-0.2888,-0.2961,-0.2958,-0.3017,-0.2972,-0.2964,-0.287,-0.2862,-0.2706,-0.2732,-0.2618,-0.2628,-0.2455,-0.2444,-0.217,-0.213,-0.2636,-0.2636,-0.2636,-0.2636,-0.2636,0,-0.2391,-0.2498,-0.2589,-0.2761,-0.2779,-0.2815,-0.291,-0.295,-0.2951,-0.2963,-0.2933,-0.2859,-0.2796,-0.2757,-0.2693,-0.2684,-0.2649,-0.259,-0.2588,-0.2402,-0.2304,-0.2054,-0.2037,-0.2534,-0.2534,-0.2533,-0.2532,0,-0.2468,-0.256,-0.2627,-0.2709,-0.275,-0.2796,-0.2846,-0.2846,-0.2856,-0.2832,-0.2759,-0.2728,-0.2682,-0.2656,-0.2636,-0.2545,-0.2553,-0.2533,-0.2467,-0.2466,-0.2302,-0.2348,-0.2058,-0.2044,-0.2523,-0.2524,-0.2525,0,-0.2476,-0.2624,-0.2632,-0.268,-0.2736,-0.2736,-0.2788,-0.2765,-0.2796,-0.273,-0.2721,-0.2675,-0.2625,-0.2597,-0.2515,-0.2493,-0.2533,-0.2452,-0.2449,-0.246,-0.2529,-0.2357,-0.2347,-0.2487,-0.2488,-0.2489,-0.2517,0,-0.2527,-0.2591,-0.2638,-0.2679,-0.2688,-0.2712,-0.269,-0.2678,-0.2681,-0.2632,-0.2608,-0.2524,-0.2472,-0.2451,-0.2406,-0.2412,-0.2399,-0.2345,-0.2287,-0.2351,-0.2354,-0.2361,-0.2261,-0.2259,-0.2258,-0.2256,0,0,-0.2507,-0.2547,-0.2575,-0.2599,-0.2616,-0.2592,-0.2598,-0.2576,-0.2503,-0.2487,-0.2482,-0.2401,-0.2339,-0.2303,-0.2329,-0.2283,-0.228,-0.2275,-0.232,-0.2327,-0.2334,-0.234,-0.2348,-0.2254,-0.2253,-0.2253,-0.2252,0,-0.2491,-0.253,-0.2578,-0.2565,-0.2574,-0.2552,-0.2559,-0.2508,-0.2489,-0.2458,-0.2405,-0.2366,-0.2297,-0.2246,-0.2222,-0.226,-0.2218,-0.226,-0.2323,-0.2307,-0.2317,-0.2324,-0.2333,-0.2341,-0.2249,-0.2249,-0.2249,0,-0.2427,-0.2466,-0.2497,-0.2489,-0.249,-0.248,-0.2433,-0.245,-0.2443,-0.2341,-0.2321,-0.227,-0.2211,-0.2185,-0.2171,-0.2137,-0.215,-0.2127,-0.2134,-0.2157,-0.2138,-0.2149,-0.2159,-0.2028,-0.2028,-0.2028,0,0,-0.2411,-0.2482,-0.2437,-0.2479,-0.2475,-0.2438,-0.2428,-0.2406,-0.237,-0.2352,-0.2281,-0.224,-0.2209,-0.2172,-0.2132,-0.2088,-0.2071,-0.2102,-0.2113,-0.2121,-0.2149,-0.2132,-0.2143,-0.2026,-0.2026,-0.2026,0,0,-0.2399,-0.2433,-0.2421,-0.2455,-0.2419,-0.2382,-0.2403,-0.2365,-0.2316,-0.2345,-0.2254,-0.2233,-0.2212,-0.2156,-0.214,-0.2121,-0.2077,-0.2077,-0.2148,-0.216,-0.217,-0.2216,-0.208,0,0,0,0,0,-0.2404,-0.2436,-0.2425,-0.243,-0.2417,-0.2387,-0.2377,-0.2352,-0.2364,-0.2344,-0.2303,-0.2259,-0.2144,-0.2127,-0.2105,-0.213,-0.2001,-0.2006,-0.201,-0.2093,-0.2107,-0.2118,0,0,0,0,0,0,-0.2406,-0.2412,-0.2424,-0.2398,-0.2396,-0.2386,-0.2378,-0.2368,-0.2364,-0.2361,-0.2271,-0.2256,-0.2196,-0.2133,-0.2115,-0.214,-0.2086,-0.2003,-0.2007,-0.201,-0.2098,-0.2109,-0.2118,0,0,0,0,0,-0.2407,-0.2412,-0.2412,-0.2395,-0.2393,-0.2364,-0.2378,-0.237,-0.2356,-0.2278,-0.2263,-0.2344,-0.2197,-0.2177,-0.2122,-0.2151,-0.2099,-0.2092,-0.2005,-0.2008,-0.2011,-0.2103,0,0,0,0,0,0,-0.2408,-0.2373,-0.2409,-0.2406,-0.2406,-0.2362,-0.2358,-0.2371,-0.227,-0.2259,-0.2346,-0.2344,-0.2197,-0.2182,-0.2167,-0.216,-0.2109,-0.2102,-0.2098,-0.2008,-0.201,-0.2012,0,0,0,0,0,0,-0.2371,-0.237,-0.2407,-0.2422,-0.2419,-0.236,-0.2357,-0.2288,-0.2268,-0.2339,-0.2338,-0.2346,-0.2215,-0.2185,-0.2173,-0.2064,-0.2116,-0.211,-0.2105,-0.2102,-0.2009,-0.2011,0,0,0,0,0,0,-0.2369,-0.2368,-0.2421,-0.2419,-0.2416,-0.2363,-0.2293,-0.2272,-0.2315,-0.2342,-0.2316,-0.2317,-0.2218,-0.2206,-0.2178,-0.2074,-0.2067,-0.2116,-0.2112,-0.2109,-0.2106,0,0,0,0,0,0,0,-0.2368,-0.2393,-0.2446,-0.2417,-0.2415,-0.2375,-0.2372,-0.237,-0.2315,-0.2315,-0.2316,-0.2317,-0.2153,-0.2146,-0.2139,-0.2082,0,0,-0.2117,-0.2114,0,0,0,0,0,0,0,0,-0.2392,-0.2393,-0.2446,-0.2446,-0.2446,-0.2374,-0.2372,-0.237,-0.2315,-0.2315,-0.2316,-0.2316,-0.2151,-0.2145,-0.214,0,0,0,0,0,0,0,0,0,0,0,0,0,0,0,-0.2446,-0.2446,0,-0.2374,-0.2373,-0.2371,-0.2315,-0.2315,-0.2316,-0.2316,-0.2149,-0.2145,-0.214,0,0,0,0,0,0,0,0,0,0,0,0,0,0,0,0,0,0,0,0,0,0,0,0,0,0,0,0,0,0,0,0,0,0,0,0,0,0,0,0,0,0,0,0,0,0,0,0,0,0,0,0,0,0,0,0,0,0,0,0,0,0,0,0,0,0,0,0,0]}],[{"header":{"parameterUnit":"kt","parameterCategory":2,"dx":1,"dy":1,"la1":30.253999710083008,"la2":30.299108505249023,"lo1":-89.0895004272461,"lo2":-89.04439544677734,"nx":28,"ny":28,"refTime":"2022-11-01T21:00:00:Z","depth":"2","parameterNumber":3,"parameterNumberName":"V-component_of_CURRENTS"},"data":[-0.0794,-0.081,-0.0803,-0.077,-0.0749,-0.0691,-0.0646,-0.0518,-0.0338,-0.0136,0.0051,0.0325,0.037,0.0426,0.0463,0.0468,0.0424,0.0448,0.0488,0.0468,0.0461,0.0454,0.0418,0,0,0,0,0,-0.0767,-0.0769,-0.0775,-0.0755,-0.0724,-0.0687,-0.061,-0.0533,-0.0416,-0.0198,-0.0038,0.0092,0.0261,0.0317,0.0386,0.0434,0.0399,0.044,0.0422,0.0419,0.0415,0.039,0.0454,0.0453,0.0452,0.0451,0,0,-0.0711,-0.0737,-0.0726,-0.0712,-0.0684,-0.0643,-0.0601,-0.0501,-0.039,-0.019,-0.014,0.0033,0.0151,0.0317,0.0333,0.0377,0.037,0.0441,0.0438,0.0434,0.0413,0.0402,0.0482,0.0482,0.0482,0.0481,0.0481,0,-0.0646,-0.064,-0.0642,-0.0642,-0.062,-0.057,-0.0495,-0.0452,-0.0297,-0.02,-0.009,-0.0023,0.0096,0.0196,0.0321,0.0329,0.0415,0.0437,0.0394,0.0359,0.0347,0.0362,0.0354,0.042,0.0419,0.0418,0.0418,0.0418,-0.0539,-0.0566,-0.0539,-0.0537,-0.0521,-0.0477,-0.0426,-0.0285,-0.0236,-0.0064,-0.0034,0.0077,0.0111,0.0245,0.0287,0.0329,0.0315,0.0423,0.0353,0.028,0.0296,0.029,0.0285,0.041,0.0411,0.0412,0.0412,0,-0.0476,-0.045,-0.0466,-0.0411,-0.0387,-0.0378,-0.0247,-0.021,-0.0099,-0.004,-0.0011,0.0126,0.0159,0.0228,0.0268,0.0294,0.0318,0.0327,0.0344,0.0365,0.0283,0.0278,0.0342,0.0343,0.0343,0.0344,0.0344,0,-0.0362,-0.0375,-0.0325,-0.0347,-0.0328,-0.0235,-0.0204,-0.0152,-0.0046,-0.0008,0.0066,0.0101,0.015,0.0208,0.0195,0.0228,0.0246,0.0207,0.0229,0.0244,0.0246,0.0153,0.0145,0.0213,0.0212,0.0211,0.0211,0,-0.0292,-0.0255,-0.0271,-0.0258,-0.0189,-0.0172,-0.0125,-0.0061,-0.0021,0.0027,0.0063,0.0098,0.0134,0.0138,0.0156,0.0128,0.0212,0.019,0.0208,0.021,0.0215,0.0215,0.021,0.021,0.021,0.021,0.0209,0,-0.0198,-0.0199,-0.0203,-0.0147,-0.0138,-0.0117,-0.008,-0.0046,0.0009,0.0012,0.0033,0.0045,0.009,0.005,0.0095,0.0077,0.0087,0.0103,0.0107,0.0077,0.0096,0.018,0.0253,0.0167,0.0166,0.0165,0.0165,0,-0.0163,-0.0164,-0.0123,-0.0118,-0.0125,-0.0088,-0.0051,-0.0031,-0.0039,-0.0012,-0.0003,0.0012,-0.0023,-0.0007,0.0012,0.0038,0.0068,0.0034,0.008,0.008,0.0083,0.0144,0.0168,0.024,0.0156,0.0157,0.0158,0,-0.0143,-0.0113,-0.012,-0.012,-0.0092,-0.0086,-0.0062,-0.0054,-0.0052,-0.0058,-0.0038,-0.004,-0.0041,-0.0041,-0.0019,0.0006,0.0056,-0.0008,-0.0008,0.0025,0.0126,0.0132,0.0139,0.007,0.0071,0.0071,0.0151,0,-0.0092,-0.01,-0.0099,-0.0107,-0.0082,-0.0089,-0.0085,-0.0077,-0.0105,-0.0111,-0.0097,-0.0093,-0.0087,-0.0069,-0.0081,-0.0035,-0.0035,-0.0039,-0.0054,-0.0016,0.0016,0.0022,-0.0066,-0.0067,-0.0068,-0.0069,0,0,-0.0094,-0.0115,-0.0119,-0.0109,-0.0109,-0.0126,-0.0121,-0.0122,-0.013,-0.0129,-0.0162,-0.0148,-0.0147,-0.0102,-0.0103,-0.0085,-0.0073,-0.0098,-0.0035,-0.0031,-0.0027,0.0005,0.0011,-0.0071,-0.0072,-0.0072,-0.0072,0,-0.0101,-0.0113,-0.0125,-0.0115,-0.0128,-0.0137,-0.0134,-0.015,-0.0164,-0.0157,-0.018,-0.0166,-0.0158,-0.015,-0.0149,-0.0099,-0.011,-0.0096,-0.0074,-0.0044,-0.0038,-0.0034,-0.0001,0.0006,-0.0075,-0.0075,-0.0075,0,-0.0107,-0.0128,-0.0144,-0.0151,-0.0164,-0.0157,-0.0189,-0.0195,-0.0199,-0.0219,-0.0216,-0.0219,-0.0226,-0.0199,-0.0189,-0.0194,-0.0131,-0.0152,-0.0146,-0.0181,-0.0154,-0.0147,-0.0141,-0.0219,-0.0219,-0.0219,0,0,-0.0112,-0.0131,-0.0152,-0.0159,-0.016,-0.0183,-0.0183,-0.0208,-0.0219,-0.0224,-0.023,-0.024,-0.0238,-0.0225,-0.023,-0.0179,-0.0187,-0.0167,-0.016,-0.0154,-0.0185,-0.0157,-0.0151,-0.022,-0.022,-0.022,0,0,-0.0124,-0.017,-0.0188,-0.0197,-0.0198,-0.0225,-0.0219,-0.0236,-0.0235,-0.0255,-0.0272,-0.0274,-0.0258,-0.0258,-0.0269,-0.0232,-0.0264,-0.026,-0.0217,-0.0209,-0.0202,-0.0243,-0.0309,0,0,0,0,0,-0.0168,-0.0162,-0.0178,-0.0185,-0.0217,-0.0211,-0.0212,-0.0248,-0.0278,-0.0262,-0.028,-0.0301,-0.0279,-0.0289,-0.0283,-0.0259,-0.0232,-0.023,-0.0228,-0.0163,-0.0154,-0.0147,0,0,0,0,0,0,-0.0171,-0.018,-0.0178,-0.0208,-0.0215,-0.0213,-0.0269,-0.0277,-0.0281,-0.0289,-0.0297,-0.0301,-0.0318,-0.0293,-0.0287,-0.0264,-0.0311,-0.0231,-0.0229,-0.0228,-0.016,-0.0153,-0.0146,0,0,0,0,0,-0.0173,-0.018,-0.0233,-0.0207,-0.0213,-0.0254,-0.0271,-0.0278,-0.028,-0.03,-0.0305,-0.0309,-0.0317,-0.0314,-0.029,-0.0267,-0.0315,-0.0312,-0.023,-0.0228,-0.0227,-0.0156,0,0,0,0,0,0,-0.0175,-0.0173,-0.0234,-0.0236,-0.023,-0.0254,-0.0262,-0.0279,-0.0291,-0.0296,-0.0313,-0.0318,-0.0314,-0.0313,-0.0311,-0.0267,-0.0318,-0.0316,-0.0314,-0.0229,-0.0228,-0.0227,0,0,0,0,0,0,-0.017,-0.0175,-0.0234,-0.0262,-0.0267,-0.0254,-0.0262,-0.0231,-0.029,-0.0302,-0.0308,-0.0315,-0.0318,-0.0312,-0.031,-0.026,-0.032,-0.0318,-0.0317,-0.0316,-0.0228,-0.0227,0,0,0,0,0,0,-0.0172,-0.0176,-0.0262,-0.0265,-0.027,-0.0291,-0.0226,-0.0256,-0.0322,-0.03,-0.0329,-0.0332,-0.0315,-0.0315,-0.031,-0.026,-0.026,-0.032,-0.0319,-0.0318,-0.0317,0,0,0,0,0,0,0,-0.0174,-0.0146,-0.0227,-0.0268,-0.0272,-0.0254,-0.0254,-0.0254,-0.0323,-0.0325,-0.0328,-0.033,-0.0332,-0.033,-0.0328,-0.026,0,0,-0.032,-0.0319,0,0,0,0,0,0,0,0,-0.0144,-0.0146,-0.0227,-0.0228,-0.0228,-0.0254,-0.0254,-0.0254,-0.0323,-0.0325,-0.0327,-0.0329,-0.0332,-0.033,-0.0328,0,0,0,0,0,0,0,0,0,0,0,0,0,0,0,-0.0227,-0.0228,0,-0.0254,-0.0254,-0.0254,-0.0323,-0.0325,-0.0327,-0.0329,-0.0331,-0.033,-0.0328,0,0,0,0,0,0,0,0,0,0,0,0,0,0,0,0,0,0,0,0,0,0,0,0,0,0,0,0,0,0,0,0,0,0,0,0,0,0,0,0,0,0,0,0,0,0,0,0,0,0,0,0,0,0,0,0,0,0,0,0,0,0,0,0,0,0,0,0,0]}]],[[{"header":{"parameterUnit":"kt","parameterCategory":2,"dx":1,"dy":1,"la1":30.253999710083008,"la2":30.299108505249023,"lo1":-89.0895004272461,"lo2":-89.04439544677734,"nx":28,"ny":28,"refTime":"2022-11-01T21:00:00:Z","depth":"4","parameterNumber":2,"parameterNumberName":"U-component_of_CURRENTS"},"data":[-0.0896,-0.091,-0.0935,-0.0877,-0.0853,-0.0882,-0.0938,-0.0965,-0.0967,-0.0969,-0.091,-0.0879,-0.0762,-0.0827,-0.0636,-0.0615,-0.0621,-0.0492,-0.049,-0.0531,-0.0539,-0.0546,-0.0639,0,0,0,0,0,-0.0996,-0.098,-0.0993,-0.0962,-0.1026,-0.1011,-0.1085,-0.1109,-0.1096,-0.106,-0.1014,-0.0969,-0.0829,-0.0765,-0.0685,-0.0652,-0.0598,-0.0554,-0.0591,-0.0536,-0.0545,-0.0632,0,0,0,0,0,0,-0.111,-0.1109,-0.1106,-0.1082,-0.1098,-0.1108,-0.1119,-0.1098,-0.1048,-0.0987,-0.0993,-0.0902,-0.086,-0.0726,-0.0674,-0.0597,-0.061,-0.0602,-0.0606,-0.0613,-0.069,-0.069,-0.0558,0,0,0,0,0,-0.1154,-0.1188,-0.116,-0.1155,-0.1143,-0.1112,-0.1077,-0.1083,-0.0979,-0.0965,-0.0912,-0.0845,-0.0797,-0.0728,-0.0637,-0.0618,-0.0596,-0.0564,-0.057,-0.068,-0.0675,-0.0673,-0.0686,-0.0577,-0.0578,-0.0579,-0.0579,0,-0.119,-0.1192,-0.115,-0.1133,-0.1113,-0.1072,-0.1021,-0.0923,-0.0918,-0.0843,-0.0852,-0.0807,-0.0808,-0.0718,-0.0705,-0.0621,-0.0658,-0.0586,-0.0703,-0.0689,-0.0683,-0.0695,-0.0706,-0.0586,-0.0585,-0.0585,-0.0584,0,-0.1196,-0.1155,-0.1112,-0.1034,-0.101,-0.0975,-0.0872,-0.0861,-0.0801,-0.0799,-0.0802,-0.0768,-0.0758,-0.0735,-0.0745,-0.074,-0.0719,-0.071,-0.0785,-0.0776,-0.0713,-0.0722,-0.0597,-0.0594,-0.0592,-0.0591,-0.0589,0,-0.1129,-0.1104,-0.1026,-0.1001,-0.0972,-0.082,-0.0823,-0.0748,-0.0704,-0.07,-0.0697,-0.0747,-0.078,-0.0785,-0.083,-0.082,-0.0822,-0.086,-0.084,-0.0959,-0.0965,-0.0911,-0.0913,-0.0905,-0.0906,-0.0908,-0.0909,0,-0.1084,-0.0965,-0.0948,-0.0892,-0.0741,-0.0739,-0.0678,-0.0621,-0.0596,-0.0621,-0.0646,-0.0715,-0.0791,-0.0805,-0.09,-0.0939,-0.09,-0.0935,-0.0885,-0.0879,-0.0919,-0.0919,-0.091,-0.091,-0.0911,-0.0911,-0.0912,0,-0.0971,-0.0894,-0.0854,-0.0703,-0.0674,-0.0661,-0.0603,-0.0565,-0.0566,-0.0593,-0.0669,-0.0739,-0.0847,-0.0912,-0.0971,-0.1009,-0.1037,-0.106,-0.1054,-0.0975,-0.0971,-0.09,-0.0967,-0.0968,-0.0969,-0.0971,-0.0972,0,-0.0962,-0.0862,-0.0728,-0.0679,-0.0626,-0.0534,-0.051,-0.0487,-0.0522,-0.0556,-0.066,-0.077,-0.0877,-0.0983,-0.1025,-0.1117,-0.1108,-0.1165,-0.1029,-0.1022,-0.0944,-0.0993,-0.1152,-0.0989,-0.0987,-0.0985,-0.0984,0,-0.0907,-0.0701,-0.0692,-0.0636,-0.0504,-0.0482,-0.0462,-0.0466,-0.0481,-0.054,-0.0586,-0.0814,-0.0875,-0.0951,-0.1077,-0.11,-0.1126,-0.1133,-0.113,-0.102,-0.1052,-0.1016,-0.1002,-0.1156,-0.1155,-0.1154,-0.0996,0,-0.0766,-0.0684,-0.0658,-0.0533,-0.0487,-0.0479,-0.0435,-0.0441,-0.0468,-0.049,-0.0613,-0.0728,-0.0844,-0.0947,-0.1028,-0.1134,-0.1102,-0.1113,-0.1022,-0.1101,-0.1026,-0.1017,-0.1099,-0.1098,-0.1096,-0.1095,0,0,-0.078,-0.0667,-0.0555,-0.0484,-0.0454,-0.0431,-0.0417,-0.0423,-0.0441,-0.0461,-0.0483,-0.0681,-0.0766,-0.0906,-0.1001,-0.1036,-0.1002,-0.102,-0.1093,-0.1093,-0.1093,-0.1023,-0.1016,-0.1093,-0.1092,-0.1092,-0.1091,0,-0.0709,-0.0595,-0.0543,-0.0493,-0.0438,-0.0429,-0.0423,-0.041,-0.0422,-0.0466,-0.0528,-0.0631,-0.0736,-0.082,-0.0882,-0.1007,-0.0963,-0.1089,-0.1101,-0.1083,-0.1085,-0.1086,-0.1019,-0.1013,-0.1088,-0.1088,-0.1088,0,-0.0669,-0.0571,-0.0539,-0.0439,-0.0429,-0.041,-0.0405,-0.04,-0.0408,-0.0429,-0.0462,-0.0551,-0.0637,-0.0747,-0.0793,-0.0756,-0.0877,-0.0897,-0.0906,-0.0861,-0.0835,-0.084,-0.0845,-0.0772,-0.0771,-0.077,0,0,-0.0624,-0.0533,-0.0475,-0.0432,-0.0413,-0.0406,-0.0406,-0.0401,-0.0414,-0.0421,-0.0448,-0.0508,-0.0604,-0.0631,-0.0697,-0.0769,-0.0708,-0.0857,-0.0872,-0.0884,-0.0846,-0.0824,-0.0831,-0.0766,-0.0766,-0.0765,0,0,-0.0641,-0.0513,-0.0485,-0.041,-0.0402,-0.0397,-0.04,-0.0398,-0.042,-0.0422,-0.0447,-0.0456,-0.0553,-0.056,-0.0496,-0.0707,-0.0649,-0.0661,-0.0691,-0.0709,-0.0724,-0.0663,-0.0497,0,0,0,0,0,-0.0566,-0.0519,-0.0492,-0.0475,-0.0403,-0.0398,-0.0399,-0.0398,-0.0396,-0.0398,-0.0426,-0.043,-0.0555,-0.0497,-0.0506,-0.0605,-0.0707,-0.0718,-0.0727,-0.0785,-0.0804,-0.0821,0,0,0,0,0,0,-0.0559,-0.0533,-0.0496,-0.0475,-0.0461,-0.0398,-0.0395,-0.0396,-0.0395,-0.0395,-0.0425,-0.0431,-0.0448,-0.0493,-0.0501,-0.0596,-0.0495,-0.0711,-0.072,-0.0728,-0.0791,-0.0808,-0.0821,0,0,0,0,0,-0.0554,-0.0533,-0.0395,-0.0479,-0.0467,-0.046,-0.0395,-0.0396,-0.0397,-0.0423,-0.0427,-0.0395,-0.0448,-0.0456,-0.0498,-0.0594,-0.049,-0.0492,-0.0717,-0.0724,-0.073,-0.0799,0,0,0,0,0,0,-0.055,-0.0556,-0.0395,-0.0395,-0.0476,-0.0466,-0.0455,-0.0395,-0.0426,-0.0429,-0.0395,-0.0395,-0.0448,-0.0455,-0.0461,-0.0595,-0.0485,-0.0488,-0.049,-0.0722,-0.0728,-0.0733,0,0,0,0,0,0,-0.0568,-0.0554,-0.0395,-0.0391,-0.0391,-0.0471,-0.046,-0.049,-0.0427,-0.0397,-0.0397,-0.0395,-0.0449,-0.0453,-0.0458,-0.0506,-0.0482,-0.0485,-0.0487,-0.0488,-0.0727,-0.0731,0,0,0,0,0,0,-0.0564,-0.0553,-0.0391,-0.0391,-0.0391,-0.0395,-0.0502,-0.0434,-0.0398,-0.0397,-0.0397,-0.0397,-0.0448,-0.0453,-0.0456,-0.0502,-0.0505,-0.0482,-0.0484,-0.0485,-0.0486,0,0,0,0,0,0,0,-0.0561,-0.0609,-0.0391,-0.0391,-0.0391,-0.0397,-0.0397,-0.0397,-0.0398,-0.0398,-0.0397,-0.0397,-0.0466,-0.0469,-0.0472,-0.0498,0,0,-0.0482,-0.0483,0,0,0,0,0,0,0,0,-0.0617,-0.0611,-0.0391,-0.0391,-0.0391,-0.0397,-0.0397,-0.0397,-0.0398,-0.0398,-0.0398,-0.0397,-0.0467,-0.0469,-0.0472,0,0,0,0,0,0,0,0,0,0,0,0,0,0,0,-0.0391,-0.0391,0,-0.0397,-0.0397,-0.0397,-0.0398,-0.0398,-0.0398,-0.0397,-0.0468,-0.047,-0.0472,0,0,0,0,0,0,0,0,0,0,0,0,0,0,0,0,0,0,0,0,0,0,0,0,0,0,0,0,0,0,0,0,0,0,0,0,0,0,0,0,0,0,0,0,0,0,0,0,0,0,0,0,0,0,0,0,0,0,0,0,0,0,0,0,0,0,0,0,0]}],[{"header":{"parameterUnit":"kt","parameterCategory":2,"dx":1,"dy":1,"la1":30.253999710083008,"la2":30.299108505249023,"lo1":-89.0895004272461,"lo2":-89.04439544677734,"nx":28,"ny":28,"refTime":"2022-11-01T21:00:00:Z","depth":"4","parameterNumber":3,"parameterNumberName":"V-component_of_CURRENTS"},"data":[-0.0597,-0.0631,-0.063,-0.0629,-0.0629,-0.0609,-0.056,-0.0513,-0.0416,-0.0344,-0.0261,-0.0183,-0.0062,-0.0123,0.006,0.0077,-0.0027,0.0182,0.0185,-0.0032,-0.0051,-0.0067,-0.0026,0,0,0,0,0,-0.0569,-0.0592,-0.0614,-0.0615,-0.0605,-0.0591,-0.053,-0.0498,-0.0438,-0.0325,-0.032,-0.0191,-0.0057,-0.0026,0.0072,0.0008,-0.0019,0.012,-0.0067,-0.0044,-0.0064,-0.0017,0,0,0,0,0,0,-0.0526,-0.0556,-0.0569,-0.0576,-0.0577,-0.0542,-0.0529,-0.0456,-0.0441,-0.0398,-0.0323,-0.0256,-0.0213,-0.0101,-0.0025,0.0041,0.0019,-0.0002,-0.0023,-0.0043,0.0005,0.003,0.0225,0,0,0,0,0,-0.0477,-0.0474,-0.0515,-0.0523,-0.0531,-0.0535,-0.0544,-0.0517,-0.0551,-0.0563,-0.0448,-0.038,-0.0252,-0.0201,-0.011,-0.007,-0.0242,-0.0145,-0.0157,-0.0222,-0.0218,-0.0214,-0.0228,-0.0141,-0.0144,-0.0145,-0.0146,0,-0.0393,-0.0425,-0.0461,-0.0475,-0.0506,-0.0547,-0.0585,-0.0644,-0.064,-0.0641,-0.0614,-0.0543,-0.0527,-0.0312,-0.031,-0.0242,-0.0208,-0.0196,-0.0264,-0.0251,-0.024,-0.025,-0.0259,-0.0163,-0.0161,-0.016,-0.0159,0,-0.0347,-0.0369,-0.0437,-0.0508,-0.052,-0.0577,-0.0645,-0.0668,-0.0733,-0.0725,-0.0729,-0.0746,-0.0654,-0.0632,-0.0543,-0.0497,-0.0404,-0.0326,-0.0503,-0.0494,-0.0287,-0.0289,-0.0189,-0.0183,-0.0178,-0.0174,-0.0171,0,-0.0299,-0.0357,-0.0394,-0.0454,-0.0508,-0.0636,-0.0682,-0.0755,-0.0808,-0.0808,-0.0866,-0.0823,-0.0824,-0.075,-0.0702,-0.0543,-0.0617,-0.0443,-0.042,-0.0603,-0.0604,-0.0607,-0.0609,-0.059,-0.059,-0.059,-0.059,0,-0.0255,-0.0366,-0.0425,-0.0488,-0.0626,-0.0667,-0.0723,-0.082,-0.0849,-0.088,-0.0877,-0.0888,-0.0846,-0.0812,-0.0703,-0.0721,-0.0597,-0.0637,-0.0459,-0.045,-0.0609,-0.061,-0.059,-0.059,-0.0591,-0.0591,-0.0591,0,-0.0276,-0.0333,-0.0437,-0.0553,-0.0595,-0.0658,-0.0757,-0.0822,-0.0864,-0.0881,-0.089,-0.088,-0.0844,-0.081,-0.0746,-0.0742,-0.0681,-0.0632,-0.0631,-0.0491,-0.0473,-0.0603,-0.0612,-0.0612,-0.0612,-0.0613,-0.0613,0,-0.0211,-0.0322,-0.0416,-0.0517,-0.0588,-0.0667,-0.0746,-0.0801,-0.082,-0.0838,-0.0828,-0.0846,-0.0821,-0.0798,-0.0759,-0.07,-0.0664,-0.0677,-0.0634,-0.0633,-0.0473,-0.0443,-0.0639,-0.0616,-0.0616,-0.0616,-0.0615,0,-0.0197,-0.0333,-0.0356,-0.04,-0.0548,-0.059,-0.0672,-0.0722,-0.0734,-0.0777,-0.0794,-0.0819,-0.0791,-0.0799,-0.076,-0.0715,-0.0671,-0.0667,-0.0666,-0.0636,-0.0622,-0.0467,-0.0451,-0.0641,-0.064,-0.064,-0.0618,0,-0.0228,-0.0299,-0.0335,-0.044,-0.0508,-0.0556,-0.0619,-0.0648,-0.066,-0.0675,-0.0715,-0.0728,-0.0754,-0.0744,-0.0721,-0.0704,-0.0687,-0.0684,-0.0648,-0.0663,-0.0654,-0.0652,-0.068,-0.068,-0.068,-0.068,0,0,-0.0176,-0.0252,-0.0309,-0.0388,-0.0438,-0.0441,-0.0504,-0.0529,-0.0581,-0.0591,-0.0593,-0.0662,-0.0672,-0.0689,-0.0681,-0.0706,-0.0683,-0.0662,-0.0668,-0.0667,-0.0666,-0.0657,-0.0655,-0.0681,-0.0681,-0.0681,-0.0681,0,-0.0193,-0.0255,-0.0299,-0.0358,-0.0407,-0.0429,-0.0442,-0.0489,-0.0501,-0.0567,-0.0558,-0.0576,-0.0645,-0.0642,-0.0652,-0.0703,-0.0668,-0.0703,-0.0684,-0.067,-0.0669,-0.0667,-0.0658,-0.0656,-0.0681,-0.0681,-0.0681,0,-0.0188,-0.0237,-0.0259,-0.0338,-0.0359,-0.0416,-0.0391,-0.0426,-0.046,-0.0456,-0.0517,-0.0531,-0.0557,-0.0598,-0.0619,-0.0601,-0.0639,-0.0644,-0.0645,-0.0648,-0.0633,-0.0632,-0.0631,-0.0635,-0.0635,-0.0634,0,0,-0.0198,-0.0251,-0.0301,-0.034,-0.0365,-0.0383,-0.04,-0.0406,-0.0437,-0.0451,-0.0476,-0.0504,-0.0537,-0.0546,-0.0593,-0.063,-0.0624,-0.0636,-0.0638,-0.064,-0.0643,-0.0629,-0.0629,-0.0633,-0.0633,-0.0632,0,0,-0.0186,-0.0258,-0.0259,-0.0327,-0.0351,-0.0381,-0.0401,-0.0402,-0.0439,-0.0436,-0.0448,-0.0456,-0.0509,-0.0522,-0.0499,-0.0559,-0.0554,-0.056,-0.0531,-0.0534,-0.0537,-0.0527,-0.0475,0,0,0,0,0,-0.0201,-0.0253,-0.0254,-0.0267,-0.0339,-0.0383,-0.0391,-0.0395,-0.0379,-0.0401,-0.0424,-0.0413,-0.051,-0.049,-0.0502,-0.0501,-0.0612,-0.0615,-0.0619,-0.0594,-0.0597,-0.06,0,0,0,0,0,0,-0.0207,-0.0225,-0.0252,-0.0287,-0.0302,-0.0382,-0.0357,-0.036,-0.0377,-0.0375,-0.041,-0.0414,-0.0423,-0.0485,-0.0495,-0.0494,-0.0471,-0.0613,-0.0616,-0.0619,-0.0595,-0.0598,-0.06,0,0,0,0,0,-0.0211,-0.0225,-0.0345,-0.0285,-0.0298,-0.0313,-0.0355,-0.0358,-0.0375,-0.0396,-0.04,-0.0375,-0.0423,-0.0433,-0.0491,-0.0488,-0.0464,-0.0468,-0.0615,-0.0618,-0.062,-0.0596,0,0,0,0,0,0,-0.0214,-0.023,-0.0347,-0.035,-0.0267,-0.0309,-0.0318,-0.0356,-0.0395,-0.0399,-0.0361,-0.0359,-0.0424,-0.0431,-0.0439,-0.0485,-0.0458,-0.0462,-0.0465,-0.0617,-0.0619,-0.0621,0,0,0,0,0,0,-0.0221,-0.0233,-0.0349,-0.0325,-0.0326,-0.0304,-0.0313,-0.0359,-0.0396,-0.0359,-0.0358,-0.0359,-0.0411,-0.0431,-0.0436,-0.0509,-0.0454,-0.0457,-0.046,-0.0462,-0.0619,-0.062,0,0,0,0,0,0,-0.0225,-0.0236,-0.0325,-0.0325,-0.0326,-0.0363,-0.0345,-0.042,-0.0373,-0.0358,-0.0368,-0.0366,-0.0411,-0.0417,-0.0435,-0.0505,-0.0508,-0.0454,-0.0456,-0.0458,-0.0459,0,0,0,0,0,0,0,-0.0229,-0.0167,-0.0324,-0.0325,-0.0326,-0.0377,-0.0378,-0.038,-0.0372,-0.037,-0.0369,-0.0367,-0.0432,-0.0436,-0.044,-0.0502,0,0,-0.0453,-0.0455,0,0,0,0,0,0,0,0,-0.0163,-0.0166,-0.0324,-0.0325,-0.0325,-0.0377,-0.0378,-0.0379,-0.0372,-0.037,-0.0369,-0.0368,-0.0433,-0.0436,-0.044,0,0,0,0,0,0,0,0,0,0,0,0,0,0,0,-0.0324,-0.0325,0,-0.0377,-0.0378,-0.0379,-0.0372,-0.0371,-0.0369,-0.0368,-0.0434,-0.0437,-0.044,0,0,0,0,0,0,0,0,0,0,0,0,0,0,0,0,0,0,0,0,0,0,0,0,0,0,0,0,0,0,0,0,0,0,0,0,0,0,0,0,0,0,0,0,0,0,0,0,0,0,0,0,0,0,0,0,0,0,0,0,0,0,0,0,0,0,0,0,0]}]]]